Weather History for Colby, KS

Change the Weather History Date:

Wednesday, December 4, 2013

  Actual Average (KGLD) Record (KGLD)
Temperature  
Mean Temperature 16 °F 31 °F  
Max Temperature 23 °F 44 °F 74 °F (1965)
Min Temperature 10 °F 19 °F 1 °F (1955)
Degree Days  
Heating Degree Days 48 34  
Month to date heating degree days 133  
Since 1 July heating degree days 1452  
Cooling Degree Days 0 0  
Month to date cooling degree days 0  
Year to date cooling degree days 941  
Moisture  
Dew Point 12 °F    
Average Humidity 77    
Maximum Humidity 100    
Minimum Humidity 54    
Precipitation  
Precipitation 0.00 in 0.01 in 1.54 in (1924)
Month to date precipitation 0.06  
Year to date precipitation 19.26  
Snow  
Snow 0.00 in 0.20 in - ()
Month to date snowfall 0.7  
Since 1 July snowfall 7.9  
Snow Depth -    
Sea Level Pressure  
Sea Level Pressure 29.85 in    
Wind  
Wind Speed 21 mph (NNW)    
Max Wind Speed 28 mph    
Max Gust Speed 33 mph    
Visibility 9 miles    
Events Snow    
T = Trace of Precipitation, MM = Missing Value Source: NWS Daily Summary

Daily Weather History Graph

Daily Weather History Graph

Search for Another Location

Airport:

Trip Planner

Search our weather history database for the weather conditions in past years. The results will help you decide how hot, cold, wet, or windy it might be!

Date:

Astronomy

Dec. 04, 2013 Rise Set
Actual Time 7:48 AM CST 5:20 PM CST
Civil Twilight 7:18 AM CST 5:50 PM CST
Nautical Twilight 6:45 AM CST 6:23 PM CST
Astronomical Twilight 6:12 AM CST 6:56 PM CST
Moon 9:18 AM CST (12/4) 7:32 PM CST (12/4)
Length of Visible Light 10h 31m
Length of Day
9h 32m
Waxing Crescent, 4% of the Moon is Illuminated
Dec 4
Waxing Crescent
Dec 9
First Quarter
Dec 17
Full
Dec 25
Last Quarter
Jan 1
New

Hourly Weather History & Observations

Time (CST) Temp. Windchill Dew Point Humidity Pressure Visibility Wind Dir Wind Speed Gust Speed Precip Events Conditions
12:15 AM 23.0 °F 7.2 °F 23.0 °F 100% 29.71 in 7.0 mi North 23.0 mph 31.1 mph N/A   Overcast
12:35 AM 23.0 °F 7.6 °F 23.0 °F 100% 29.70 in 7.0 mi North 21.9 mph 28.8 mph N/A   Overcast
12:55 AM 21.2 °F 6.0 °F 21.2 °F 100% 29.70 in 5.0 mi North 19.6 mph 28.8 mph N/A   Overcast
1:15 AM 21.2 °F 6.0 °F 21.2 °F 100% 29.70 in 5.0 mi NNW 19.6 mph 26.5 mph N/A   Overcast
1:35 AM 21.2 °F 4.9 °F 21.2 °F 100% 29.72 in 5.0 mi NNW 23.0 mph 28.8 mph N/A   Overcast
1:55 AM 21.2 °F 5.6 °F 21.2 °F 100% 29.72 in 5.0 mi NNW 20.7 mph 27.6 mph N/A   Overcast
2:15 AM 19.4 °F 2.8 °F 19.4 °F 100% 29.73 in 5.0 mi NNW 21.9 mph 28.8 mph N/A   Overcast
2:35 AM 19.4 °F 4.5 °F 19.4 °F 100% 29.74 in 5.0 mi NNW 17.3 mph 25.3 mph N/A   Overcast
2:55 AM 19.4 °F 4.5 °F 19.4 °F 100% 29.74 in 5.0 mi NNW 17.3 mph 25.3 mph N/A   Overcast
3:15 AM 19.4 °F 5.0 °F 19.4 °F 100% 29.73 in 5.0 mi NNW 16.1 mph 23.0 mph N/A   Overcast
3:35 AM 19.4 °F 4.1 °F 19.4 °F 100% 29.73 in 7.0 mi NNW 18.4 mph 23.0 mph N/A   Overcast
3:55 AM 19.4 °F 4.1 °F 19.4 °F 100% 29.73 in 10.0 mi NNW 18.4 mph 28.8 mph N/A   Overcast
4:15 AM 19.4 °F 4.5 °F 19.4 °F 100% 29.73 in 7.0 mi NNW 17.3 mph 24.2 mph N/A   Overcast
4:35 AM 19.4 °F 4.5 °F 19.4 °F 100% 29.73 in 10.0 mi NNW 17.3 mph - N/A   Overcast
4:55 AM 19.4 °F 3.6 °F 17.6 °F 93% 29.72 in 10.0 mi NNW 19.6 mph 28.8 mph N/A   Overcast
5:15 AM 19.4 °F 6.0 °F 17.6 °F 93% 29.72 in 10.0 mi NNW 13.8 mph 23.0 mph N/A   Overcast
5:35 AM 19.4 °F 2.5 °F 15.8 °F 86% 29.72 in 10.0 mi NNW 23.0 mph 28.8 mph N/A   Overcast
5:55 AM 19.4 °F 4.5 °F 14.0 °F 80% 29.72 in 10.0 mi NNW 17.3 mph 26.5 mph N/A   Overcast
6:15 AM 19.4 °F 4.1 °F 15.8 °F 86% 29.73 in 10.0 mi NNW 18.4 mph 24.2 mph N/A   Overcast
6:35 AM 19.4 °F 3.6 °F 14.0 °F 80% 29.76 in 10.0 mi NNW 19.6 mph 26.5 mph N/A   Overcast
6:55 AM 19.4 °F 3.2 °F 14.0 °F 80% 29.77 in 10.0 mi NNW 20.7 mph 27.6 mph N/A   Overcast
7:15 AM 19.4 °F 3.2 °F 14.0 °F 80% 29.77 in 10.0 mi NNW 20.7 mph 28.8 mph N/A   Overcast
7:35 AM 19.4 °F 2.5 °F 14.0 °F 80% 29.77 in 10.0 mi NNW 23.0 mph 29.9 mph N/A   Overcast
7:55 AM 19.4 °F 3.2 °F 14.0 °F 80% 29.77 in 10.0 mi NNW 20.7 mph 25.3 mph N/A   Overcast
8:15 AM 19.4 °F 2.8 °F 10.4 °F 68% 29.78 in 10.0 mi NNW 21.9 mph 31.1 mph N/A   Overcast
8:35 AM 17.6 °F 0.5 °F 12.2 °F 79% 29.78 in 10.0 mi NNW 21.9 mph 27.6 mph N/A   Overcast
8:55 AM 19.4 °F 3.2 °F 10.4 °F 68% 29.79 in 10.0 mi NNW 20.7 mph 32.2 mph N/A   Overcast
9:15 AM 19.4 °F 2.8 °F 10.4 °F 68% 29.79 in 10.0 mi NNW 21.9 mph 28.8 mph N/A   Overcast
9:35 AM 19.4 °F 3.6 °F 12.2 °F 74% 29.80 in 10.0 mi NNW 19.6 mph 29.9 mph N/A   Overcast
9:55 AM 19.4 °F 1.8 °F 12.2 °F 74% 29.79 in 10.0 mi NW 25.3 mph 29.9 mph N/A   Overcast
10:15 AM 19.4 °F 2.1 °F 10.4 °F 68% 29.80 in 10.0 mi NW 24.2 mph 32.2 mph N/A   Overcast
10:35 AM 19.4 °F 2.8 °F 10.4 °F 68% 29.80 in 10.0 mi NNW 21.9 mph 31.1 mph N/A   Mostly Cloudy
10:55 AM 21.2 °F 4.5 °F 10.4 °F 63% 29.81 in 10.0 mi NW 24.2 mph 29.9 mph N/A   Overcast
11:15 AM 21.2 °F 4.5 °F 10.4 °F 63% 29.82 in 10.0 mi NNW 24.2 mph 31.1 mph N/A   Overcast
11:35 AM 21.2 °F 5.2 °F 10.4 °F 63% 29.81 in 10.0 mi NNW 21.9 mph 32.2 mph N/A   Overcast
11:55 AM 21.2 °F 4.5 °F 8.6 °F 58% 29.81 in 10.0 mi NW 24.2 mph 32.2 mph N/A   Overcast
12:15 PM 21.2 °F 4.9 °F 8.6 °F 58% 29.79 in 10.0 mi NW 23.0 mph 31.1 mph N/A   Overcast
12:35 PM 21.2 °F 4.9 °F 8.6 °F 58% 29.81 in 10.0 mi NNW 23.0 mph 28.8 mph N/A   Scattered Clouds
12:55 PM 21.2 °F 4.9 °F 8.6 °F 58% 29.82 in 10.0 mi NNW 23.0 mph 29.9 mph N/A   Clear
1:10 PM 21.2 °F 4.5 °F 8.6 °F 58% 29.81 in 10.0 mi NW 24.2 mph 31.1 mph N/A   Clear
1:35 PM 23.0 °F 7.2 °F 8.6 °F 54% 29.80 in 10.0 mi NNW 23.0 mph 29.9 mph N/A   Scattered Clouds
1:55 PM 21.2 °F 4.9 °F 8.6 °F 58% 29.80 in 10.0 mi NW 23.0 mph 29.9 mph N/A   Mostly Cloudy
2:15 PM 21.2 °F 4.9 °F 8.6 °F 58% 29.81 in 10.0 mi NW 23.0 mph 29.9 mph N/A   Scattered Clouds
2:35 PM 21.2 °F 3.9 °F 8.6 °F 58% 29.82 in 10.0 mi NNW 26.5 mph 33.4 mph N/A   Scattered Clouds
2:55 PM 21.2 °F 4.5 °F 8.6 °F 58% 29.83 in 10.0 mi NW 24.2 mph 28.8 mph N/A   Clear
3:15 PM 21.2 °F 5.2 °F 6.8 °F 54% 29.85 in 10.0 mi NW 21.9 mph 29.9 mph N/A   Clear
3:35 PM 21.2 °F 4.9 °F 8.6 °F 58% 29.85 in 10.0 mi NNW 23.0 mph 32.2 mph N/A   Clear
3:55 PM 21.2 °F 4.2 °F 6.8 °F 54% 29.85 in 10.0 mi NNW 25.3 mph 31.1 mph N/A   Clear
4:15 PM 19.4 °F 2.1 °F 6.8 °F 58% 29.88 in 10.0 mi NW 24.2 mph 31.1 mph N/A   Clear
4:35 PM 17.6 °F 1.3 °F 6.8 °F 63% 29.89 in 10.0 mi NNW 19.6 mph 28.8 mph N/A   Clear
4:55 PM 17.6 °F 1.7 °F 8.6 °F 68% 29.90 in 10.0 mi NNW 18.4 mph 26.5 mph N/A   Mostly Cloudy
5:15 PM 17.6 °F 0.1 °F 6.8 °F 63% 29.91 in 10.0 mi NW 23.0 mph 27.6 mph N/A   Overcast
5:35 PM 17.6 °F 0.5 °F 6.8 °F 63% 29.92 in 10.0 mi NNW 21.9 mph 28.8 mph N/A   Overcast
5:55 PM 17.6 °F 0.9 °F 6.8 °F 63% 29.93 in 10.0 mi NW 20.7 mph 28.8 mph N/A Snow Light Snow
6:15 PM 15.8 °F -3.7 °F 6.8 °F 68% 29.93 in 10.0 mi NNW 27.6 mph 31.1 mph N/A   Overcast
6:35 PM 15.8 °F -1.1 °F 6.8 °F 68% 29.95 in 7.0 mi NNW 19.6 mph 28.8 mph N/A Snow Light Snow
6:55 PM 14.0 °F -4.7 °F 6.8 °F 73% 29.96 in 7.0 mi NNW 23.0 mph 32.2 mph N/A Snow Light Snow
7:15 PM 14.0 °F -4.3 °F 8.6 °F 79% 29.96 in 7.0 mi NNW 21.9 mph 28.8 mph N/A Snow Light Snow
7:35 PM 14.0 °F -3.9 °F 8.6 °F 79% 30.00 in 3.0 mi NNW 20.7 mph 33.4 mph N/A Snow Light Snow
7:55 PM 14.0 °F -3.9 °F 10.4 °F 86% 30.02 in 5.0 mi NNW 20.7 mph 27.6 mph N/A Snow Light Snow
8:15 PM 14.0 °F -3.9 °F 10.4 °F 86% 30.04 in 7.0 mi NW 20.7 mph 26.5 mph N/A Snow Light Snow
8:35 PM 14.0 °F -3.0 °F 10.4 °F 86% 30.04 in 4.0 mi NNW 18.4 mph 26.5 mph N/A Snow Light Snow
8:55 PM 14.0 °F -3.9 °F 10.4 °F 86% 30.03 in 7.0 mi NNW 20.7 mph 26.5 mph N/A Snow Light Snow
9:15 PM 14.0 °F -3.0 °F 10.4 °F 86% 30.04 in 10.0 mi NNW 18.4 mph 25.3 mph N/A Snow Light Snow
9:35 PM 14.0 °F -1.4 °F 10.4 °F 86% 30.09 in 7.0 mi NW 15.0 mph 23.0 mph N/A Snow Light Snow
9:55 PM 12.2 °F -4.3 °F 10.4 °F 92% 30.09 in 7.0 mi NW 16.1 mph 23.0 mph N/A Snow Light Snow
10:15 PM 12.2 °F -4.8 °F 8.6 °F 85% 30.09 in 10.0 mi NNW 17.3 mph 27.6 mph N/A   Overcast
10:35 PM 12.2 °F -4.8 °F 8.6 °F 85% 30.10 in 10.0 mi NW 17.3 mph 23.0 mph N/A   Overcast
10:55 PM 12.2 °F -3.7 °F 8.6 °F 85% 30.11 in 10.0 mi NW 15.0 mph 19.6 mph N/A   Overcast
11:15 PM 12.2 °F -4.8 °F 5.0 °F 73% 30.10 in 10.0 mi NNW 17.3 mph 24.2 mph N/A   Overcast
11:35 PM 10.4 °F -6.6 °F 5.0 °F 79% 30.11 in 10.0 mi NW 16.1 mph 20.7 mph N/A   Mostly Cloudy
11:55 PM 10.4 °F -6.6 °F 5.0 °F 79% 30.13 in 10.0 mi NW 16.1 mph 23.0 mph N/A   Mostly Cloudy